Wind_Speed
21 20 20 22 25 27 30 33 35 37 37 34 32 31 31 29 28 28 28 28 27 28 28 27 26 25 25 25 24 23 22 21 19 18 17 15 14 13 12 12 10 8 8 7 7 7 8 9 9 10 11 12 14 15 16 17 17 17 17 18 19 21 23
25 22 22 23 24 26 29 33 37 39 39 36 34 32 31 29 29 28 27 26 27 28 29 28 27 26 25 26 26 25 24 23 21 20 19 18 17 16 16 14 12 11 10 10 10 10 11 11 12 13 14 15 16 17 18 18 18 18 18 18 19 21 23
27 26 25 24 24 25 27 30 35 38 39 38 36 35 32 30 29 27 25 24 25 27 28 29 28 27 26 26 27 27 26 24 23 21 20 20 20 19 18 17 15 13 13 13 13 13 13 14 15 15 16 17 17 18 19 19 20 19 19 19 20 21 23
30 30 28 26 26 26 27 30 33 35 37 38 38 37 33 30 28 26 23 22 23 24 26 27 27 28 27 28 29 28 27 26 24 23 23 22 22 22 21 19 18 16 16 16 16 16 16 17 18 18 18 19 19 20 20 21 22 22 22 21 21 22 23
31 32 31 29 28 28 29 30 32 34 35 37 37 36 35 32 30 28 26 24 24 25 25 25 26 28 30 29 29 28 27 27 27 26 25 24 24 24 23 22 21 20 19 19 19 19 20 20 21 21 21 21 21 21 22 23 23 24 24 24 23 23 24
33 33 33 33 31 31 31 31 31 32 33 33 32 32 31 30 30 29 27 26 26 26 25 25 26 28 29 30 29 28 28 29 29 28 27 27 26 26 25 24 23 22 22 22 22 22 22 23 23 24 24 23 23 23 23 24 25 26 26 26 25 25 25
35 34 34 34 34 33 33 31 31 31 31 30 29 28 27 27 28 28 27 27 27 27 26 27 27 27 28 29 29 30 30 29 29 29 29 28 28 27 26 25 24 24 24 24 25 25 25 25 26 26 26 25 24 25 25 26 26 27 28 27 27 27 27
37 36 35 35 35 35 35 33 31 30 30 29 29 29 28 29 30 29 29 30 29 28 29 29 28 27 27 27 28 30 30 30 30 30 29 29 29 28 27 27 26 26 27 27 27 27 28 28 28 28 28 27 26 27 27 27 28 29 30 29 29 29 29
38 37 36 35 35 35 35 35 34 32 31 30 31 31 31 32 32 32 32 31 30 31 31 30 28 27 26 27 28 29 30 30 31 30 30 30 30 29 29 29 29 29 30 30 29 30 30 29 29 29 29 28 27 28 29 30 30 31 31 31 32 31 31
39 38 37 36 34 33 33 35 36 35 34 34 33 34 34 35 35 34 34 33 33 33 33 30 29 28 28 29 29 29 30 31 31 31 31 31 31 31 32 32 32 32 32 32 31 31 31 31 30 30 29 29 29 29 31 32 32 32 33 33 34 34 33
43 42 40 39 37 36 35 36 36 37 38 37 37 37 37 37 37 36 36 35 35 35 33 31 30 30 30 31 31 31 32 32 32 32 32 32 32 33 33 34 34 33 33 33 33 33 32 32 31 31 31 31 31 31 32 33 34 34 35 35 36 36 36
47 45 43 42 41 41 39 37 37 38 38 38 38 38 38 39 39 39 38 38 38 37 34 33 32 32 32 33 33 33 34 34 34 34 33 33 34 34 35 35 35 35 35 35 35 34 34 33 32 32 32 32 33 33 34 35 36 37 37 37 38 38 38
49 47 46 45 44 43 43 42 41 41 40 39 38 38 38 39 40 40 40 40 39 38 36 35 35 35 35 35 35 36 37 37 36 35 35 35 36 36 36 36 36 36 36 35 35 35 35 35 34 34 34 34 35 36 37 38 39 39 39 39 40 41 41
52 50 49 47 46 45 46 46 46 45 43 42 41 40 40 40 40 40 41 40 40 39 38 38 37 37 37 38 39 40 40 39 38 37 37 37 37 38 37 37 37 37 36 36 37 37 37 36 36 36 36 36 37 38 39 40 41 41 41 41 41 43 44
54 52 51 50 49 48 48 48 47 46 45 44 44 43 43 43 43 42 42 42 41 40 40 39 39 39 39 39 40 42 42 41 40 40 39 39 40 39 39 39 39 38 38 38 38 38 38 38 38 38 38 39 40 40 41 42 43 43 43 43 43 45 46
54 54 53 52 52 51 50 49 48 47 46 46 46 46 46 46 46 45 45 44 43 42 41 40 40 40 40 40 42 42 42 41 41 41 41 41 41 41 41 41 40 40 39 39 39 40 40 40 40 40 41 41 42 43 43 44 44 45 45 45 46 47 48
53 55 55 55 54 53 53 52 51 50 48 48 47 47 47 48 48 47 47 46 45 44 43 43 43 43 43 44 44 43 43 43 43 43 43 43 43 42 42 42 42 42 42 42 42 42 42 43 43 43 43 44 44 44 45 45 46 46 47 48 49 49 50
47 51 54 56 56 55 55 55 54 53 51 50 50 49 49 50 49 48 48 47 47 46 45 45 46 46 47 47 46 45 46 46 46 46 46 46 45 45 44 44 44 45 46 46 46 45 45 46 46 45 45 46 46 47 47 47 48 49 49 50 51 51 52
40 44 49 53 55 56 56 56 55 55 54 53 53 52 52 52 51 51 50 49 48 47 47 48 49 49 49 49 49 49 49 48 48 49 49 48 48 47 47 46 47 48 48 49 48 48 48 48 48 47 47 48 49 49 49 50 51 51 52 53 53 54 55
36 39 42 46 49 52 54 55 55 56 56 55 55 55 54 54 54 53 53 52 51 51 51 51 51 51 51 51 51 52 52 51 51 51 51 51 50 49 49 49 50 50 51 51 51 50 50 51 50 50 50 51 51 51 51 52 54 54 55 55 56 57 57
35 36 38 39 42 45 47 49 51 52 53 54 54 54 55 55 55 55 54 54 54 54 55 55 55 54 54 54 54 54 54 53 53 53 53 53 53 52 53 53 53 53 53 53 53 53 53 53 53 53 54 54 54 53 54 56 57 58 58 59 59 60 60
38 37 37 38 39 40 42 43 45 47 49 50 50 51 52 52 53 53 54 54 55 56 56 57 57 57 57 57 57 57 57 57 56 56 55 55 56 57 57 57 56 56 56 56 56 56 56 56 57 57 57 57 57 57 58 59 60 61 62 62 63 63 63
40 39 39 39 40 40 40 40 41 42 43 44 45 46 47 47 48 49 49 50 52 53 54 55 56 56 57 57 58 58 59 58 58 57 57 58 59 60 61 61 60 60 59 59 60 60 59 60 60 61 61 61 61 61 62 63 63 65 66 66 66 66 66
40 40 40 40 40 40 40 39 39 39 39 40 40 41 42 42 43 43 44 45 47 48 49 50 51 52 52 53 54 55 56 55 56 56 57 58 59 60 61 62 62 62 62 62 62 62 62 63 63 63 64 64 65 65 65 65 66 67 68 69 69 69 68
40 39 39 39 39 39 39 39 38 37 37 37 37 37 37 38 38 39 39 40 41 42 43 44 45 45 46 48 49 50 50 50 51 53 54 54 55 56 57 57 57 58 59 59 59 59 60 61 62 62 62 62 63 63 63 63 64 65 67 68 69 69 68
42 41 40 40 39 39 39 39 38 37 36 35 35 35 35 36 36 36 37 37 37 38 39 39 40 40 42 43 44 45 45 45 46 47 48 49 49 50 51 52 52 52 52 53 53 53 54 55 55 56 57 57 57 56 56 57 58 59 61 63 63 64 64
45 44 43 42 42 41 40 39 38 37 36 35 35 35 35 36 36 36 36 36 36 37 38 38 38 39 40 41 42 43 43 43 43 43 44 45 46 46 47 48 48 48 48 49 50 50 50 51 51 51 52 53 54 53 53 53 54 54 57 59 59 59 59
48 47 46 45 44 44 42 41 40 38 37 37 37 36 36 36 36 36 37 37 37 37 37 37 38 39 40 41 42 42 42 43 43 43 43 44 45 45 46 46 46 46 47 48 48 48 48 49 49 49 50 51 52 53 53 53 53 53 54 56 57 56 56
51 50 49 48 47 46 45 45 43 42 41 41 40 40 39 38 38 39 39 39 40 40 39 39 40 40 41 41 42 42 43 43 44 44 44 45 46 47 47 47 47 48 48 48 48 47 47 48 49 48 49 51 52 53 54 54 53 53 54 56 56 56 56
54 53 52 51 50 49 48 48 47 46 46 45 44 44 43 42 42 42 43 43 42 42 43 43 43 42 43 43 43 43 43 44 45 45 46 46 47 48 49 50 50 50 50 50 49 49 48 49 49 49 49 50 51 52 53 53 52 52 53 55 57 57 57
57 56 55 55 54 53 51 51 50 50 49 49 48 47 47 47 46 46 46 46 46 46 46 46 46 46 46 46 45 45 44 44 45 47 47 48 48 49 51 52 52 53 53 53 52 51 51 51 51 50 50 51 52 52 52 51 49 49 51 54 56 58 58
60 59 58 57 57 56 55 54 53 52 52 51 51 50 50 50 50 49 49 49 49 49 49 49 49 49 49 49 49 48 47 47 47 47 48 49 49 50 52 53 54 55 55 55 55 55 54 53 52 51 51 51 52 53 52 49 48 48 50 52 55 58 58
62 62 61 60 59 58 58 57 56 55 54 54 53 53 52 52 52 52 51 51 51 51 51 52 52 52 52 52 52 51 51 50 49 49 50 50 51 51 52 53 54 55 56 57 58 58 57 56 54 52 51 51 52 53 52 50 48 49 51 53 54 56 57
65 64 63 62 61 61 60 60 59 58 57 56 56 55 55 55 54 54 54 54 54 54 54 54 55 55 55 55 55 54 53 53 53 53 52 52 53 53 54 54 55 56 57 58 59 59 59 59 57 56 55 53 52 51 51 49 49 51 52 53 54 55 57
66 65 64 64 63 63 62 61 61 60 59 59 58 58 58 58 58 57 57 57 57 57 57 58 58 59 58 58 58 57 56 56 56 56 55 55 55 55 56 57 58 58 58 59 60 61 61 61 60 59 58 56 53 52 50 48 49 52 53 52 53 56 57
68 67 67 66 66 65 64 63 63 62 61 61 61 61 61 61 61 61 61 60 61 61 61 61 61 61 61 61 61 60 59 59 59 59 59 58 58 58 59 59 60 60 60 61 62 62 63 63 62 61 59 56 53 52 50 48 50 54 55 53 54 57 58
71 70 70 69 68 67 66 66 65 64 64 64 63 63 64 64 64 64 64 65 65 65 65 65 64 64 64 64 63 63 63 62 62 62 62 62 62 61 62 62 62 62 62 63 63 64 64 64 64 62 60 57 53 51 50 50 51 54 55 56 57 58 58
73 73 72 72 71 70 69 69 68 67 67 66 66 66 66 66 66 67 67 68 68 68 68 68 68 67 67 67 66 66 65 65 65 65 65 66 66 65 65 65 65 65 65 65 65 65 65 65 65 64 61 58 54 50 49 50 51 53 55 58 60 60 58
Wind_Direction
208 205 204 201 196 190 184 181 183 187 191 193 196 198 200 203 204 207 211 214 214 216 219 223 226 228 228 229 231 233 235 238 240 242 243 244 244 245 247 248 249 250 255 261 266 272 280 289 297 304 308 313 315 316 318 321 325 331 335 337 339 342 343
208 204 204 204 201 196 190 186 185 186 188 191 196 202 205 207 208 210 213 215 217 219 222 225 229 231 233 233 234 235 236 238 240 243 247 250 251 249 249 251 252 254 257 262 269 275 283 291 295 300 304 307 309 310 312 314 318 323 328 331 334 337 339
208 206 205 205 205 202 196 192 190 189 189 190 195 202 207 210 214 215 217 219 220 222 225 227 231 233 234 235 236 237 239 240 242 244 246 250 253 255 255 256 257 259 262 266 272 279 286 292 295 297 300 303 304 306 308 310 314 317 321 325 329 332 335
209 208 206 204 205 205 201 198 196 195 193 193 196 201 205 211 216 221 224 226 226 226 227 229 231 234 234 234 235 238 242 245 247 247 248 250 254 257 259 261 262 262 263 266 271 277 283 288 293 296 297 298 300 303 306 308 311 313 317 320 324 328 330
212 210 208 206 206 207 206 203 201 200 200 201 202 203 205 209 214 220 225 229 231 232 231 231 233 235 236 236 237 239 244 248 249 250 251 253 255 257 259 262 264 265 265 267 271 274 278 284 289 293 294 295 298 301 304 307 309 311 314 317 321 324 326
217 214 211 210 209 210 211 209 208 207 208 210 212 212 212 212 215 220 225 230 235 237 237 237 237 237 239 239 240 242 244 247 249 251 253 254 255 258 260 262 264 266 269 270 271 274 277 282 286 289 291 293 296 299 302 304 306 309 310 313 317 320 322
221 218 215 213 212 213 215 214 214 214 214 216 219 221 221 221 223 226 229 233 237 239 240 240 240 239 239 239 240 241 243 246 248 250 252 254 257 259 261 262 263 266 269 270 272 275 277 280 284 287 290 291 293 296 299 302 304 305 307 310 313 316 318
223 222 219 217 215 216 217 217 217 218 220 221 221 223 224 225 228 229 231 234 236 239 240 240 239 238 238 239 239 241 242 244 246 247 249 253 256 258 260 262 263 265 267 269 271 274 276 280 283 286 288 289 291 293 296 299 301 302 305 308 310 312 314
225 226 225 222 220 220 220 220 219 219 222 224 225 224 224 226 229 230 232 235 237 239 241 241 240 240 240 241 241 241 242 244 246 248 249 252 254 257 259 260 262 264 265 268 270 273 277 280 283 284 285 287 289 291 294 297 300 301 302 305 307 308 310
223 225 226 225 224 224 223 222 221 220 221 223 226 227 228 229 231 232 233 235 237 239 240 241 241 241 241 242 243 243 245 246 248 250 251 253 256 257 259 260 262 264 266 269 271 273 277 280 281 282 283 285 288 290 292 295 298 299 301 303 304 305 307
219 220 220 222 222 222 223 222 222 222 222 224 226 229 232 233 234 235 235 236 238 239 240 240 241 241 241 242 243 244 246 247 249 250 253 255 257 258 260 261 263 265 268 270 273 275 277 279 281 281 282 284 286 288 290 293 296 297 299 301 302 304 306
217 217 217 219 220 220 221 221 221 222 223 224 226 229 232 235 236 236 237 237 238 239 240 240 241 241 240 241 242 243 244 246 248 250 253 256 258 260 262 264 266 268 270 272 274 275 277 278 280 281 282 284 286 288 290 293 295 296 298 300 302 303 305
218 217 218 218 220 221 221 221 221 221 221 222 223 226 230 233 235 236 237 238 239 240 241 241 242 242 241 242 243 243 245 246 247 250 253 255 258 260 262 265 267 269 271 272 273 275 276 277 278 279 281 284 286 288 291 293 294 296 298 299 301 303 303
220 220 219 219 220 221 222 223 223 223 223 223 224 224 227 229 232 234 237 238 239 241 241 242 244 244 244 245 246 247 247 248 250 251 253 255 257 259 261 263 266 267 269 270 272 273 275 276 277 279 281 283 286 288 291 293 294 296 297 299 300 301 301
224 224 223 223 222 222 222 224 226 226 227 228 228 229 230 231 232 233 235 237 238 240 242 243 245 246 247 248 249 251 252 253 254 255 255 256 257 258 260 261 263 265 267 269 270 272 274 275 277 279 280 283 286 288 290 292 293 295 297 298 299 299 299
223 225 226 226 225 225 224 225 227 228 228 229 231 232 234 235 236 236 237 239 239 241 243 245 247 248 249 250 251 253 255 256 257 258 258 258 258 260 261 262 263 265 266 267 269 271 273 275 277 279 281 283 285 287 289 290 292 293 295 296 296 297 297
222 223 224 226 227 227 228 228 228 229 229 230 231 233 235 237 238 239 241 242 243 244 245 247 249 250 251 252 253 255 257 258 259 260 260 261 261 262 263 264 266 267 268 268 269 271 274 276 277 280 282 284 286 287 288 289 291 292 293 293 294 294 295
223 223 225 226 227 229 230 231 232 232 232 233 234 235 237 239 240 241 242 244 245 246 247 249 250 251 253 254 255 256 258 259 260 262 263 263 264 265 266 268 270 271 272 272 273 275 276 277 279 281 283 284 285 286 287 288 289 290 290 291 292 293 294
223 224 226 227 228 230 231 233 234 235 235 235 236 237 239 240 242 243 243 244 246 247 248 249 250 251 253 255 256 257 258 259 260 262 263 264 266 267 268 270 271 272 273 274 275 276 277 278 280 281 282 283 284 285 286 287 288 288 289 290 291 292 293
219 222 224 226 228 229 230 232 233 235 236 237 237 239 240 241 243 244 245 246 247 247 248 249 250 251 253 254 256 257 258 259 260 261 263 265 266 267 269 269 270 271 272 273 275 276 277 278 279 280 281 281 282 284 286 287 288 288 289 290 290 291 292
214 218 221 223 225 227 228 230 231 234 235 237 238 240 241 242 244 246 247 248 249 249 250 251 252 253 254 255 256 257 258 259 260 261 263 265 267 268 268 268 269 270 271 273 274 275 276 277 278 279 279 280 282 284 285 286 286 287 287 288 289 289 290
213 216 219 222 225 226 227 229 231 233 235 237 239 240 242 243 245 247 248 250 251 252 253 254 255 255 256 257 258 259 260 261 262 263 265 267 268 268 268 268 269 270 271 273 274 275 276 277 278 279 280 280 281 282 282 283 284 284 285 285 286 287 288
216 217 219 222 225 227 229 230 232 234 236 238 240 241 243 244 246 248 249 251 253 254 255 257 258 259 260 260 261 262 263 264 265 266 267 268 268 269 270 270 271 271 272 273 274 275 276 277 277 278 279 280 280 280 280 281 281 282 282 283 284 284 285
222 222 222 223 225 228 231 233 235 236 238 240 242 243 245 246 247 249 250 252 253 255 257 258 259 260 261 262 263 264 265 266 267 267 267 268 269 270 271 272 273 274 274 274 275 276 276 276 277 277 278 278 279 279 280 281 281 282 282 283 283 284 284
228 229 230 229 229 230 232 234 236 237 238 240 241 243 245 247 248 249 250 252 254 255 257 258 259 260 262 263 264 265 266 267 268 268 269 270 271 272 273 274 275 276 277 278 278 278 278 279 279 279 279 279 280 281 282 283 283 283 284 284 284 285 285
231 233 235 235 235 236 236 236 237 237 238 240 241 243 246 248 249 250 251 252 254 255 257 258 260 261 262 263 264 265 266 267 268 270 271 272 273 274 275 275 276 277 278 279 280 280 281 281 281 282 283 283 283 283 283 283 283 284 284 284 285 286 287
232 234 236 238 239 240 240 239 239 239 240 241 243 245 247 249 251 253 254 254 255 256 257 259 261 262 263 264 265 266 267 268 268 269 271 272 273 275 276 277 277 278 279 280 281 282 283 283 284 284 285 286 286 286 285 284 284 285 285 286 287 288 289
233 234 235 237 239 240 241 240 240 241 242 244 246 247 249 251 252 253 254 256 257 258 259 261 262 263 265 266 267 268 269 270 271 272 272 274 275 276 277 278 279 280 280 281 282 283 283 284 285 285 286 287 287 288 288 288 288 288 288 288 289 290 291
234 234 235 236 238 239 241 241 242 243 245 247 249 250 251 252 253 254 255 256 257 259 261 261 262 263 265 267 268 270 271 272 273 274 275 276 277 278 278 279 280 280 280 280 281 282 283 285 285 286 287 289 289 290 289 289 290 291 290 290 290 290 289
236 235 235 236 237 239 240 242 243 245 247 248 250 251 252 252 254 255 256 256 257 259 260 262 263 264 265 266 268 270 271 272 273 274 275 276 277 278 279 280 281 281 281 282 282 282 284 285 286 288 289 290 291 291 290 289 290 290 290 290 289 288 287
238 238 237 237 238 239 241 242 244 246 248 249 251 252 252 253 254 256 257 258 258 259 260 262 264 265 266 266 267 269 270 271 272 273 274 275 276 276 277 279 280 281 282 283 283 284 284 285 286 288 289 290 290 290 290 290 289 289 288 288 287 287 287
238 239 239 239 239 240 241 243 245 246 248 250 251 253 254 254 255 257 258 259 259 260 261 262 263 265 266 266 267 268 269 270 271 272 273 274 274 274 275 276 278 279 281 282 283 284 284 285 285 286 287 288 289 290 291 292 291 289 288 287 286 286 286
239 240 241 241 242 242 243 244 245 247 248 250 252 254 255 256 257 258 258 259 260 261 261 262 263 264 265 266 266 267 268 269 271 272 272 273 274 274 274 275 276 277 279 280 281 283 284 286 287 287 288 288 288 289 291 292 291 290 288 287 285 284 284
240 240 241 242 243 244 245 246 247 248 249 251 253 254 255 256 257 258 258 259 260 261 261 262 263 263 264 265 266 267 268 270 271 273 274 275 275 276 276 276 277 277 278 279 281 282 284 286 287 288 289 289 289 289 289 289 289 287 286 284 283 281 280
240 241 241 242 243 245 246 247 248 249 250 252 253 255 256 256 256 257 258 259 259 260 261 262 262 263 265 266 267 268 269 271 273 274 276 277 277 278 278 278 278 278 279 279 280 282 283 285 286 287 288 289 289 290 289 288 287 286 285 283 283 282 280
239 240 241 242 243 245 246 247 249 250 251 252 254 255 256 257 258 258 258 258 259 260 260 262 263 264 266 267 268 270 271 272 274 275 277 278 279 279 279 279 278 278 278 279 280 281 282 284 285 286 287 288 289 289 289 288 287 287 286 283 282 282 282
240 240 242 243 244 245 246 247 248 250 251 252 253 255 256 257 258 259 260 260 260 260 261 262 263 265 267 268 270 271 272 273 275 276 277 279 279 279 279 279 279 279 279 279 280 280 282 283 284 286 287 288 289 289 287 286 286 286 285 283 282 282 283
241 241 242 243 244 245 246 247 248 250 251 252 253 255 256 257 258 259 260 261 262 262 263 264 265 266 267 269 270 272 273 274 275 276 277 278 279 280 280 280 279 279 279 279 280 280 281 282 284 285 287 288 288 287 285 284 284 284 282 281 280 281 283
Height
10941 10943 10944 10946 10946 10946 10946 10947 10948 10953 10957 10962 10965 10966 10967 10968 10970 10972 10973 10975 10977 10979 10980 10982 10983 10985 10986 10987 10988 10989 10990 10991 10992 10993 10993 10994 10994 10995 10995 10994 10995 10995 10995 10995 10995 10995 10995 10995 10994 10994 10993 10993 10992 10992 10991 10991 10990 10989 10989 10988 10986 10985 10984
10939 10941 10943 10944 10945 10946 10946 10946 10947 10949 10953 10958 10962 10964 10966 10967 10968 10970 10972 10974 10976 10977 10979 10980 10982 10983 10985 10986 10986 10987 10989 10990 10991 10992 10992 10993 10993 10993 10993 10994 10994 10994 10994 10994 10994 10994 10993 10993 10993 10992 10992 10992 10991 10990 10989 10989 10988 10987 10987 10986 10985 10984 10983
10937 10939 10941 10943 10944 10946 10947 10947 10947 10948 10950 10954 10957 10960 10963 10965 10967 10969 10971 10973 10975 10976 10977 10978 10980 10982 10983 10984 10984 10985 10987 10988 10989 10990 10991 10991 10991 10991 10992 10992 10993 10993 10993 10993 10993 10992 10992 10992 10991 10991 10991 10990 10989 10989 10988 10987 10986 10985 10985 10985 10984 10983 10982
10934 10936 10939 10941 10943 10944 10945 10946 10947 10948 10950 10951 10953 10956 10960 10963 10966 10969 10970 10972 10973 10974 10975 10977 10979 10980 10980 10981 10982 10983 10985 10986 10987 10988 10989 10989 10989 10990 10990 10991 10991 10992 10992 10992 10991 10991 10991 10991 10990 10990 10989 10989 10988 10987 10986 10985 10984 10983 10983 10983 10982 10982 10980
10932 10933 10936 10938 10940 10942 10943 10944 10945 10946 10948 10949 10951 10953 10956 10960 10963 10966 10967 10969 10970 10971 10973 10975 10976 10976 10977 10979 10980 10982 10983 10984 10984 10985 10986 10987 10988 10988 10988 10989 10989 10990 10990 10990 10989 10989 10989 10989 10989 10988 10987 10987 10986 10985 10984 10983 10982 10981 10981 10981 10980 10980 10979
10929 10931 10933 10936 10938 10940 10941 10942 10944 10945 10947 10949 10951 10953 10955 10958 10960 10962 10964 10966 10967 10969 10971 10972 10973 10974 10975 10977 10978 10979 10980 10981 10982 10983 10984 10985 10985 10986 10986 10987 10987 10988 10988 10987 10987 10987 10987 10987 10986 10986 10985 10985 10984 10983 10982 10981 10980 10979 10979 10978 10978 10978 10977
10926 10928 10931 10933 10935 10937 10939 10941 10943 10944 10947 10948 10951 10953 10955 10957 10958 10960 10962 10963 10964 10966 10968 10969 10970 10971 10973 10974 10976 10976 10977 10978 10979 10980 10981 10982 10983 10984 10984 10985 10985 10985 10985 10985 10984 10984 10984 10984 10984 10983 10983 10982 10982 10981 10980 10979 10977 10976 10976 10976 10975 10975 10975
10922 10925 10928 10930 10932 10934 10936 10939 10941 10943 10946 10947 10950 10952 10953 10955 10956 10957 10959 10959 10961 10963 10964 10965 10966 10968 10970 10972 10973 10974 10975 10976 10976 10978 10979 10980 10981 10981 10982 10983 10982 10983 10982 10981 10982 10981 10981 10981 10981 10981 10980 10980 10979 10978 10977 10976 10975 10974 10973 10973 10972 10972 10972
10919 10922 10925 10927 10930 10932 10934 10937 10939 10941 10943 10945 10947 10949 10950 10951 10952 10953 10955 10956 10958 10959 10959 10961 10963 10965 10967 10968 10969 10970 10972 10973 10973 10975 10976 10977 10978 10979 10979 10980 10979 10979 10978 10978 10979 10978 10978 10978 10978 10978 10977 10977 10977 10976 10975 10974 10973 10971 10970 10970 10969 10969 10969
10916 10918 10921 10924 10927 10929 10932 10934 10935 10938 10940 10942 10944 10945 10946 10947 10948 10950 10951 10952 10954 10954 10955 10958 10960 10962 10963 10964 10965 10967 10968 10969 10970 10972 10973 10974 10975 10975 10976 10976 10976 10976 10975 10975 10975 10975 10975 10975 10975 10975 10974 10974 10974 10973 10972 10971 10970 10969 10967 10967 10966 10965 10965
10909 10912 10915 10918 10922 10925 10927 10929 10932 10934 10935 10937 10939 10941 10943 10944 10945 10946 10948 10949 10950 10950 10953 10955 10957 10958 10959 10960 10962 10963 10963 10965 10966 10968 10969 10970 10971 10971 10972 10972 10972 10973 10972 10972 10972 10972 10972 10972 10972 10971 10971 10971 10970 10970 10969 10968 10967 10966 10964 10963 10962 10962 10961
10903 10906 10909 10912 10915 10918 10921 10924 10926 10928 10931 10933 10935 10937 10938 10940 10941 10942 10944 10945 10946 10947 10950 10952 10953 10955 10956 10956 10957 10958 10959 10960 10962 10963 10965 10966 10966 10967 10967 10968 10968 10969 10969 10968 10968 10968 10968 10968 10968 10968 10967 10967 10967 10966 10965 10965 10963 10962 10961 10960 10959 10958 10957
10898 10901 10905 10908 10911 10914 10916 10918 10920 10922 10925 10927 10930 10932 10933 10935 10936 10938 10939 10940 10942 10944 10947 10949 10950 10951 10951 10952 10953 10953 10954 10955 10957 10959 10960 10961 10961 10962 10962 10963 10964 10964 10964 10965 10964 10964 10964 10964 10964 10964 10964 10964 10963 10962 10962 10961 10960 10959 10958 10957 10955 10954 10953
10893 10897 10900 10903 10906 10909 10911 10913 10914 10917 10920 10922 10924 10926 10928 10930 10931 10933 10935 10936 10938 10941 10943 10944 10945 10946 10947 10948 10949 10948 10949 10951 10953 10955 10956 10956 10956 10957 10958 10958 10959 10960 10960 10960 10960 10960 10960 10960 10960 10960 10960 10960 10959 10959 10958 10957 10956 10955 10954 10953 10951 10949 10948
10890 10894 10897 10899 10902 10904 10906 10908 10910 10914 10917 10919 10921 10922 10923 10925 10927 10929 10930 10932 10935 10936 10938 10940 10941 10942 10943 10944 10944 10944 10945 10947 10949 10950 10951 10951 10951 10952 10953 10954 10954 10955 10956 10956 10956 10956 10956 10956 10956 10956 10956 10956 10955 10955 10954 10953 10952 10951 10949 10948 10947 10945 10943
10885 10889 10891 10894 10897 10899 10902 10904 10906 10909 10912 10915 10916 10918 10919 10921 10923 10925 10926 10928 10931 10933 10935 10936 10937 10938 10939 10939 10939 10940 10942 10943 10944 10945 10946 10947 10947 10948 10949 10949 10950 10951 10951 10951 10952 10951 10952 10952 10952 10952 10952 10951 10951 10950 10949 10948 10947 10946 10945 10943 10942 10940 10938
10878 10882 10885 10888 10890 10893 10896 10899 10901 10904 10907 10910 10912 10913 10915 10916 10918 10921 10923 10925 10927 10929 10931 10932 10932 10933 10934 10933 10935 10936 10937 10938 10939 10940 10941 10942 10943 10944 10944 10945 10946 10946 10946 10946 10947 10947 10947 10947 10947 10947 10947 10947 10946 10945 10944 10943 10942 10941 10939 10938 10936 10934 10932
10873 10876 10879 10882 10885 10888 10891 10893 10896 10899 10902 10905 10907 10909 10910 10911 10913 10916 10918 10920 10922 10924 10926 10927 10927 10928 10928 10928 10931 10932 10932 10933 10934 10935 10935 10936 10938 10939 10940 10941 10941 10940 10940 10941 10941 10942 10942 10942 10942 10942 10942 10941 10940 10939 10939 10938 10936 10935 10933 10932 10930 10929 10927
10869 10872 10874 10877 10880 10883 10885 10888 10890 10893 10896 10898 10901 10903 10904 10907 10909 10910 10912 10915 10917 10919 10920 10921 10921 10922 10922 10923 10925 10926 10926 10928 10929 10929 10930 10931 10933 10934 10935 10936 10935 10935 10934 10935 10935 10937 10936 10936 10936 10937 10936 10935 10934 10933 10933 10932 10930 10929 10928 10926 10925 10923 10922
10865 10867 10870 10872 10875 10877 10879 10881 10884 10886 10889 10891 10894 10896 10898 10901 10902 10904 10907 10909 10911 10912 10913 10914 10915 10916 10917 10918 10919 10920 10921 10922 10923 10924 10924 10926 10927 10928 10929 10929 10929 10928 10928 10929 10930 10931 10930 10930 10931 10931 10930 10929 10928 10928 10927 10925 10924 10922 10921 10920 10918 10917 10916
10861 10863 10865 10867 10869 10871 10873 10875 10878 10880 10882 10885 10887 10890 10892 10894 10896 10898 10901 10903 10904 10905 10907 10908 10909 10910 10911 10912 10913 10914 10915 10917 10918 10919 10920 10921 10922 10922 10922 10922 10922 10922 10922 10923 10924 10924 10924 10924 10924 10924 10923 10923 10923 10923 10921 10919 10917 10915 10914 10913 10912 10911 10910
10856 10858 10861 10862 10864 10866 10868 10870 10872 10875 10877 10880 10882 10884 10886 10888 10891 10893 10894 10896 10897 10899 10900 10901 10902 10904 10905 10906 10907 10908 10909 10910 10912 10914 10915 10915 10914 10914 10914 10914 10915 10916 10917 10917 10917 10918 10918 10918 10917 10916 10916 10916 10917 10916 10914 10913 10911 10908 10906 10906 10905 10904 10904
10852 10854 10855 10857 10859 10861 10863 10866 10868 10871 10873 10875 10877 10879 10881 10883 10885 10887 10888 10890 10891 10892 10894 10895 10896 10897 10898 10899 10900 10901 10902 10904 10906 10907 10908 10907 10906 10905 10905 10907 10908 10909 10910 10911 10911 10911 10912 10911 10911 10910 10909 10909 10908 10908 10907 10905 10904 10902 10900 10898 10898 10897 10897
10848 10850 10852 10853 10855 10857 10859 10861 10864 10867 10869 10871 10873 10874 10876 10878 10880 10882 10883 10884 10885 10887 10888 10889 10890 10891 10892 10893 10894 10894 10895 10897 10899 10899 10899 10899 10899 10899 10899 10900 10900 10901 10902 10903 10904 10904 10903 10903 10903 10903 10902 10901 10900 10899 10899 10898 10897 10894 10892 10890 10889 10889 10889
10845 10847 10849 10851 10852 10854 10856 10857 10860 10862 10864 10866 10868 10870 10871 10873 10875 10877 10878 10879 10880 10881 10882 10883 10884 10885 10886 10887 10887 10888 10889 10891 10891 10891 10891 10893 10893 10893 10893 10894 10894 10894 10894 10895 10895 10896 10895 10895 10895 10894 10893 10893 10893 10892 10892 10891 10890 10887 10884 10882 10880 10880 10880
10841 10844 10846 10848 10849 10850 10852 10854 10856 10858 10859 10861 10863 10865 10867 10868 10870 10872 10873 10874 10875 10876 10876 10877 10879 10880 10880 10880 10881 10882 10883 10884 10885 10885 10885 10886 10886 10887 10887 10887 10888 10888 10888 10887 10887 10888 10888 10887 10887 10886 10885 10884 10884 10885 10885 10883 10882 10880 10877 10874 10872 10871 10871
10836 10839 10841 10843 10845 10846 10848 10850 10852 10853 10855 10857 10858 10860 10861 10863 10864 10866 10867 10868 10869 10870 10871 10872 10873 10874 10874 10874 10875 10876 10877 10878 10879 10879 10880 10880 10880 10880 10880 10880 10881 10881 10881 10881 10881 10881 10880 10880 10879 10879 10877 10876 10875 10876 10876 10875 10874 10873 10870 10866 10865 10864 10864
10830 10833 10835 10837 10839 10841 10843 10845 10847 10849 10850 10852 10853 10855 10856 10858 10859 10860 10862 10862 10863 10864 10865 10866 10867 10867 10868 10869 10869 10870 10871 10872 10872 10873 10874 10874 10874 10874 10874 10873 10874 10874 10874 10874 10874 10874 10873 10873 10872 10872 10870 10869 10868 10867 10866 10866 10866 10866 10863 10860 10858 10857 10856
10824 10827 10830 10832 10834 10835 10837 10839 10841 10843 10845 10846 10848 10850 10851 10853 10853 10854 10856 10856 10857 10858 10859 10860 10860 10861 10862 10862 10863 10864 10864 10865 10866 10866 10867 10867 10867 10867 10867 10867 10867 10867 10867 10867 10868 10868 10867 10866 10865 10865 10863 10862 10861 10860 10859 10858 10858 10858 10856 10853 10851 10850 10848
10817 10820 10823 10826 10828 10830 10831 10833 10835 10837 10839 10840 10842 10844 10846 10847 10848 10848 10849 10850 10851 10852 10853 10853 10854 10855 10855 10856 10857 10857 10858 10859 10859 10860 10860 10861 10860 10860 10860 10859 10860 10860 10860 10860 10860 10861 10860 10859 10857 10858 10857 10856 10855 10854 10852 10852 10852 10851 10849 10846 10843 10842 10840
10810 10813 10816 10819 10821 10823 10826 10827 10829 10831 10833 10834 10836 10837 10839 10841 10842 10843 10843 10844 10845 10846 10847 10847 10848 10848 10849 10849 10850 10851 10851 10852 10853 10853 10853 10854 10854 10854 10853 10852 10853 10852 10852 10852 10852 10853 10853 10852 10851 10851 10851 10850 10849 10847 10845 10846 10847 10846 10844 10841 10837 10834 10832
10804 10806 10809 10812 10814 10817 10819 10821 10823 10825 10826 10828 10829 10831 10832 10834 10835 10836 10837 10838 10839 10839 10840 10841 10841 10841 10842 10843 10843 10844 10845 10845 10846 10846 10846 10847 10847 10848 10847 10846 10846 10845 10845 10845 10845 10845 10845 10845 10845 10845 10845 10844 10842 10839 10839 10840 10840 10839 10837 10835 10831 10827 10824
10797 10800 10802 10805 10807 10810 10812 10814 10816 10818 10820 10821 10822 10824 10825 10827 10828 10829 10830 10831 10831 10832 10833 10833 10834 10834 10835 10835 10836 10837 10837 10838 10838 10839 10839 10840 10840 10840 10840 10840 10839 10839 10838 10837 10837 10837 10837 10837 10837 10838 10837 10837 10836 10834 10833 10833 10833 10832 10830 10827 10824 10821 10818
10790 10793 10796 10798 10801 10803 10805 10807 10809 10812 10813 10815 10816 10817 10818 10820 10821 10822 10822 10823 10824 10824 10825 10825 10826 10827 10827 10828 10829 10830 10830 10831 10831 10831 10832 10832 10832 10832 10832 10831 10831 10831 10830 10829 10828 10829 10830 10830 10830 10829 10829 10828 10828 10828 10827 10827 10826 10824 10822 10820 10818 10815 10812
10782 10785 10788 10791 10793 10795 10798 10800 10802 10804 10806 10808 10809 10810 10811 10812 10813 10814 10815 10815 10816 10816 10817 10817 10818 10818 10819 10820 10821 10822 10823 10824 10824 10824 10825 10825 10825 10824 10824 10823 10823 10823 10822 10821 10821 10821 10822 10822 10822 10822 10821 10820 10821 10820 10820 10820 10818 10814 10812 10812 10811 10808 10806
10774 10777 10780 10782 10785 10787 10790 10792 10794 10796 10798 10800 10801 10802 10803 10804 10805 10806 10807 10807 10808 10808 10809 10809 10810 10811 10812 10813 10814 10815 10816 10817 10817 10817 10817 10818 10818 10817 10816 10815 10815 10816 10816 10814 10813 10813 10814 10814 10814 10814 10813 10813 10813 10812 10811 10812 10810 10805 10802 10802 10803 10801 10799
10766 10769 10772 10774 10777 10779 10782 10784 10786 10788 10790 10792 10793 10795 10796 10796 10797 10798 10798 10799 10799 10800 10801 10802 10803 10804 10805 10806 10807 10808 10808 10809 10809 10809 10810 10810 10810 10809 10809 10808 10807 10808 10808 10808 10806 10806 10806 10806 10806 10805 10805 10805 10806 10805 10804 10804 10802 10799 10795 10793 10792 10792 10792
10758 10761 10763 10766 10768 10771 10773 10776 10778 10780 10782 10783 10785 10786 10788 10789 10789 10789 10790 10790 10791 10792 10793 10795 10796 10797 10798 10799 10800 10800 10801 10801 10801 10801 10801 10801 10801 10800 10800 10800 10799 10799 10800 10800 10799 10799 10798 10797 10797 10797 10796 10796 10797 10798 10799 10797 10795 10793 10790 10785 10783 10784 10785